Location: Albany
(35.0000°S, 118.0000°E)
Time: 23:36:45
(UTC-05:00)

Amateur Radio Satellites - All Passes

Search period start: 18 December 2014 23:06
Search period end: 19 December 2014 23:06
Location: Albany, 35.0000°S, 118.0000°E

Satellite Date Start Highest point End Downlink Frequencies (MHz)
Time Altitude Azimuth
TIGRISAT 18 Dec 23:09:28 23:11:17 12° 245° (WSW) 23:13:05 435.000
M-CUBED/EXP-1 PRIME 18 Dec 23:23:52 23:26:14 18° 114° (ESE) 23:28:34 437.505
AIST 2 18 Dec 23:29:36 23:32:58 25° 292° (WNW) 23:36:20 435.215
ITUPSAT 1 18 Dec 23:41:58 23:46:40 62° 106° (ESE) 23:51:27 437.325
SWISSCUBE 18 Dec 23:42:19 23:47:04 70° 105° (ESE) 23:51:53 437.505
SPROUT 18 Dec 23:52:04 23:54:21 14° 273° (W) 23:56:40 437.525
O/OREOS (USA 219) 18 Dec 23:52:14 23:56:49 79° 72° (ENE) 00:01:30 437.305
TISAT 1 18 Dec 23:56:37 23:57:50 11° 272° (W) 23:59:05 437.305
BEESAT 19 Dec 00:07:47 00:12:32 68° 282° (WNW) 00:17:21 436.000
KKS-1 19 Dec 00:08:36 00:12:07 23° 111° (ESE) 00:15:41 437.445
STARS 19 Dec 00:10:20 00:13:00 16° 114° (ESE) 00:15:41 437.465
PCSat 19 Dec 00:16:31 00:19:19 14° 283° (WNW) 00:22:06 145.827
Oscar 19 19 Dec 00:17:05 00:22:04 47° 81° (E) 00:26:59 437.125/150
ITAMSAT 1 19 Dec 00:29:02 00:33:01 21° 85° (E) 00:36:57 435.822/435.867
AUBIESAT-1 19 Dec 00:33:33 00:36:54 48° 285° (WNW) 00:40:11 437.475
YUBILEINY 19 Dec 00:34:21 00:41:43 30° 252° (WSW) 00:49:14 435.215
M-CUBED/EXP-1 PRIME 19 Dec 00:58:36 01:01:11 20° 282° (WNW) 01:03:43 437.505
ITUPSAT 1 19 Dec 01:23:31 01:24:55 11° 271° (W) 01:26:21 437.325
HORYU 2 19 Dec 01:33:15 01:36:23 19° 85° (E) 01:39:30 437.375
KKS-1 19 Dec 01:44:40 01:48:34 29° 277° (W) 01:52:32 437.445
STARS 19 Dec 01:44:49 01:49:05 43° 279° (W) 01:53:24 437.465
Gurwin Techsat 1B 19 Dec 01:50:54 01:56:19 85° 77° (ENE) 02:01:39 435.225
Oscar 19 19 Dec 01:57:32 02:01:00 18° 246° (WSW) 02:04:27 437.125/150
VERMONT LUNAR 19 Dec 02:03:46 02:07:10 40° 31° (NNE) 02:10:36 437.305
ITAMSAT 1 19 Dec 02:07:41 02:12:35 40° 251° (WSW) 02:17:26 435.822/435.867
PHONESAT 2.4 19 Dec 02:08:27 02:11:41 28° 34° (NNE) 02:14:56 2401.200-2431.200
MOZHAYETS 4 19 Dec 02:39:59 02:43:55 28° 109° (ESE) 02:47:52
AIST 1 19 Dec 02:58:17 03:02:47 87° 97° (E) 03:07:13
AO-7 19 Dec 03:01:38 03:09:47 54° 77° (ENE) 03:17:50 29.400- 29.500
HORYU 2 19 Dec 03:09:04 03:13:06 33° 251° (WSW) 03:17:05 437.375
Gurwin Techsat 1B 19 Dec 03:34:10 03:35:28 11° 241° (WSW) 03:36:46 435.225
JAS-2 19 Dec 03:41:43 03:48:55 50° 81° (E) 03:56:27 435.910
VERMONT LUNAR 19 Dec 03:41:57 03:45:30 49° 196° (SSW) 03:49:03 437.305
PHONESAT 2.4 19 Dec 03:46:32 03:50:15 63° 199° (SSW) 03:53:58 2401.200-2431.200
CUBESAT XI-V 19 Dec 03:59:18 04:01:45 14° 114° (ESE) 04:04:13 437.345
PRISM 19 Dec 04:05:36 04:09:22 35° 108° (ESE) 04:13:11 437.425
MOZHAYETS 4 19 Dec 04:17:27 04:21:04 23° 275° (W) 04:24:44
GONETS M04 19 Dec 04:30:45 04:39:15 63° 88° (E) 04:47:51
Cubesat XI-IV 19 Dec 04:48:27 04:53:21 33° 83° (E) 04:58:09 437.490
AO-7 19 Dec 04:55:07 05:02:06 31° 241° (WSW) 05:09:04 29.400- 29.500
STRAND 1 19 Dec 05:00:27 05:05:30 60° 106° (ESE) 05:10:37 437.568
VERMONT LUNAR 19 Dec 05:20:56 05:24:16 33° 178° (S) 05:27:36 437.305
CUTE-I 19 Dec 05:21:52 05:27:18 71° 78° (ENE) 05:32:39 437.470
PHONESAT 2.4 19 Dec 05:25:53 05:29:20 34° 182° (S) 05:32:47 2401.200-2431.200
SO-50 19 Dec 05:26:20 05:30:43 58° 122° (ESE) 05:35:02 436.795
JAS-2 19 Dec 05:27:17 05:33:35 32° 247° (WSW) 05:40:13 435.910
CUBESAT XI-V 19 Dec 05:34:11 05:38:41 51° 279° (W) 05:43:18 437.345
PRISM 19 Dec 05:42:34 05:45:00 15° 274° (W) 05:47:27 437.425
Cubesat XI-IV 19 Dec 06:28:43 06:33:14 27° 248° (WSW) 06:37:43 437.490
GONETS M04 19 Dec 06:29:54 06:36:37 24° 250° (WSW) 06:43:25
HO-68 19 Dec 06:31:45 06:34:51 13° 89° (E) 06:37:57 435.675
STRAND 1 19 Dec 06:42:36 06:45:02 13° 272° (W) 06:47:29 437.568
VERMONT LUNAR 19 Dec 06:59:23 07:03:00 60° 162° (SSE) 07:06:35 437.305
CUTE-I 19 Dec 07:04:06 07:06:41 14° 242° (WSW) 07:09:15 437.470
SEEDS 19 Dec 07:04:06 07:05:52 12° 88° (E) 07:07:36 437.485
CUTE 1.7 + AOD 2 19 Dec 07:04:35 07:07:05 15° 87° (E) 07:09:33 437.475
PHONESAT 2.4 19 Dec 07:04:50 07:08:29 49° 165° (SSE) 07:12:07 2401.200-2431.200
SO-50 19 Dec 07:09:27 07:10:40 11° 287° (WNW) 07:11:54 436.795
DOVE 4 19 Dec 07:12:38 07:13:32 11° 91° (E) 07:14:25 437.250
CUSAT 1 19 Dec 07:20:27 07:25:41 20° 91° (E) 07:30:21 437.405
MaSat-1 19 Dec 07:21:03 07:23:45 25° 74° (ENE) 07:26:36 437.345
Oscar 11 19 Dec 07:37:15 07:37:21 10° 89° (E) 07:37:28 145.826/435.025
BRITE-PL 19 Dec 07:38:40 07:43:42 48° 82° (E) 07:48:15 437.365/2234.400
CINEMA 3 19 Dec 07:48:49 07:51:31 16° 88° (E) 07:54:08 145.822/145.860
ANTELSAT 19 Dec 07:52:00 07:54:14 13° 114° (ESE) 07:56:26 437.575/2403.000
AAUSAT CUBESAT 2 19 Dec 08:00:24 08:04:27 44° 81° (E) 08:08:27 437.432
DANDE 19 Dec 08:01:35 08:09:07 39° 87° (E) 08:15:31 436.750
POLYITAN 1 19 Dec 08:03:21 08:03:50 10° 116° (ESE) 08:04:18 437.675
NANOSAT C BR1 19 Dec 08:06:20 08:07:31 11° 115° (ESE) 08:08:41 145.865
CANX-2 19 Dec 08:07:49 08:12:07 81° 257° (WSW) 08:16:22 2200.000
GOMX 1 19 Dec 08:13:52 08:18:51 82° 78° (ENE) 08:23:24 467.674
HO-68 19 Dec 08:16:01 08:23:19 89° 254° (WSW) 08:30:32 435.675
QB50P1 19 Dec 08:18:51 08:21:28 16° 113° (ESE) 08:24:07 145.935-145.965
UWE-3 19 Dec 08:24:24 08:27:35 20° 86° (E) 08:30:41 435.000/436.395/437.385
TIGRISAT 19 Dec 08:26:27 08:30:34 31° 109° (ESE) 08:34:38 435.000
FUNcube-1 19 Dec 08:28:03 08:30:59 18° 86° (E) 08:33:52 145.935
COMPASS 1 19 Dec 08:34:26 08:38:37 59° 255° (WSW) 08:42:44 437.405
SEEDS 19 Dec 08:37:49 08:41:53 44° 254° (WSW) 08:45:54 437.485
VERMONT LUNAR 19 Dec 08:38:01 08:41:13 29° 327° (NNW) 08:44:22 437.305
CUTE 1.7 + AOD 2 19 Dec 08:39:10 08:43:07 37° 253° (WSW) 08:47:01 437.475
AISAT 19 Dec 08:39:21 08:41:43 14° 87° (E) 08:44:04 437.250
PHONESAT 2.4 19 Dec 08:43:39 08:47:12 42° 330° (NNW) 08:50:42 2401.200-2431.200
DX 1 19 Dec 08:44:03 08:48:24 51° 80° (E) 08:52:41 434.975-435.025
POPSAT HIP 1 19 Dec 08:45:53 08:49:45 32° 109° (ESE) 08:53:39 437.405
DOVE 4 19 Dec 08:47:05 08:51:47 58° 255° (WSW) 08:56:07 437.250
YUBILEINY 19 Dec 08:51:40 08:58:08 22° 111° (ESE) 09:04:32 435.215
UNISAT 6 19 Dec 08:54:06 08:58:45 66° 104° (ESE) 09:03:21 437.425
MaSat-1 19 Dec 08:55:23 08:57:15 14° 237° (WSW) 08:59:09 437.345
CUSAT 1 19 Dec 09:00:24 09:08:27 70° 261° (W) 09:15:00 437.405
DELFI C3 19 Dec 09:00:49 09:04:58 85° 258° (WSW) 09:09:04 145.870
50 SAT 19 Dec 09:04:05 09:07:12 21° 85° (E) 09:10:15 437.505
Oscar 11 19 Dec 09:09:33 09:13:50 56° 255° (WSW) 09:18:04 145.826/435.025
HUMSAT D 19 Dec 09:13:04 09:16:57 35° 82° (E) 09:20:44 437.325/437.525
DUCHIFAT 1 19 Dec 09:14:13 09:18:31 70° 104° (ESE) 09:22:53 145.980
UKube-1 19 Dec 09:16:53 09:21:18 67° 255° (WSW) 09:25:38 .
CUBEBUG 2 19 Dec 09:18:22 09:22:44 74° 256° (WSW) 09:26:56 437.445
BRITE-PL 19 Dec 09:18:26 09:21:38 17° 244° (WSW) 09:24:42 437.365/2234.400
BUGSAT 1 19 Dec 09:21:04 09:25:15 67° 104° (ESE) 09:29:32 437.445
CINEMA 3 19 Dec 09:24:44 09:28:53 37° 252° (WSW) 09:32:50 145.822/145.860
ANTELSAT 19 Dec 09:25:57 09:30:32 54° 280° (W) 09:35:05 437.575/2403.000
QB50P2 19 Dec 09:26:33 09:30:53 81° 282° (WNW) 09:35:17 145.880/145.840
ESTCUBE 1 19 Dec 09:29:14 09:32:37 20° 85° (E) 09:35:59 437.505/2401.250
VELOX 1 19 Dec 09:31:47 09:36:16 56° 79° (E) 09:40:41 145.980
POLYITAN 1 19 Dec 09:34:50 09:39:09 64° 281° (W) 09:43:33 437.675
ZACube-1 19 Dec 09:35:58 09:40:14 64° 256° (WSW) 09:44:22 437.345
AAUSAT CUBESAT 2 19 Dec 09:37:42 09:39:41 13° 247° (WSW) 09:41:39 437.432
NANOSAT C BR1 19 Dec 09:38:33 09:42:49 58° 281° (W) 09:47:09 145.865
DANDE 19 Dec 09:44:52 09:52:29 39° 258° (WSW) 09:58:54 436.750
QB50P1 19 Dec 09:52:56 09:56:59 39° 278° (W) 10:01:06 145.935-145.965
UWE-3 19 Dec 10:00:26 10:04:07 28° 251° (WSW) 10:07:41 435.000/436.395/437.385
FUNcube-1 19 Dec 10:03:37 10:07:22 30° 251° (WSW) 10:11:03 145.935
TIGRISAT 19 Dec 10:03:41 10:07:16 22° 275° (W) 10:10:51 435.000
O/OREOS (USA 219) 19 Dec 10:05:40 10:10:18 86° 110° (ESE) 10:14:49 437.305
HO-68 19 Dec 10:06:06 10:09:59 16° 237° (WSW) 10:13:52 435.675
TISAT 1 19 Dec 10:08:45 10:09:52 11° 88° (E) 10:10:58 437.305
RS-15 19 Dec 10:08:51 10:20:20 52° 71° (ENE) 10:31:57 29.354- 29.394
AISAT 19 Dec 10:14:11 10:18:33 45° 253° (WSW) 10:22:49 437.250
DX 1 19 Dec 10:22:07 10:24:09 13° 245° (WSW) 10:26:10 434.975-435.025
POPSAT HIP 1 19 Dec 10:22:37 10:25:40 19° 274° (W) 10:28:44 437.405
CUBEBUG 1 19 Dec 10:25:42 10:30:15 86° 78° (ENE) 10:34:42 437.445
50 SAT 19 Dec 10:39:02 10:42:20 24° 250° (WSW) 10:45:35 437.505
YUBILEINY 19 Dec 10:46:50 10:55:41 72° 273° (W) 11:04:25 435.215
HUMSAT D 19 Dec 10:49:53 10:52:25 16° 247° (WSW) 10:54:55 437.325/437.525
JUGNU 19 Dec 10:58:10 11:00:33 13° 13° (NNE) 11:02:57 437.505
ESTCUBE 1 19 Dec 11:05:23 11:09:30 33° 251° (WSW) 11:13:35 437.505/2401.250
VELOX 1 19 Dec 11:10:29 11:12:18 12° 245° (WSW) 11:14:06 145.980
PCSat 19 Dec 11:29:55 11:31:58 12° 78° (ENE) 11:34:02 145.827
Oscar 19 19 Dec 11:30:35 11:35:34 49° 108° (ESE) 11:40:35 437.125/150
Gurwin Techsat 1B 19 Dec 11:33:32 11:34:46 11° 119° (ESE) 11:36:00 435.225
SPROUT 19 Dec 11:40:01 11:44:22 60° 255° (WSW) 11:48:37 437.525
TISAT 1 19 Dec 11:41:44 11:45:58 52° 254° (WSW) 11:50:07 437.305
ITAMSAT 1 19 Dec 11:43:55 11:48:03 24° 113° (ESE) 11:52:12 435.822/435.867
ITUPSAT 1 19 Dec 11:46:55 11:50:37 21° 85° (E) 11:54:17 437.325
SWISSCUBE 19 Dec 11:46:55 11:50:49 24° 84° (E) 11:54:41 437.505
BEESAT 3 19 Dec 11:48:17 11:51:46 29° 67° (ENE) 11:55:14 437.485
AIST 2 19 Dec 11:49:22 11:50:16 11° 72° (ENE) 11:51:10 435.215
SRMSAT 19 Dec 11:59:46 12:01:07 11° 15° (NNE) 12:02:28 437.500
BEESAT 19 Dec 12:11:43 12:16:17 40° 81° (E) 12:20:49 436.000
AUBIESAT-1 19 Dec 12:19:08 12:21:22 14° 80° (E) 12:23:41 437.475
ISS 19 Dec 12:20:41 12:23:53 47° 46° (NE) 12:27:08 145.825
RS-15 19 Dec 12:21:18 12:32:54 47° 230° (SW) 12:44:39 29.354- 29.394
BEESAT 2 19 Dec 12:26:10 12:30:11 75° 63° (ENE) 12:34:12 435.950
HORYU 2 19 Dec 12:30:08 12:32:05 13° 115° (ESE) 12:34:02 437.375
M-CUBED/EXP-1 PRIME 19 Dec 12:42:29 12:46:02 30° 77° (ENE) 12:49:50 437.505
JUGNU 19 Dec 12:45:02 12:48:49 18° 3° (N) 12:52:37 437.505
YUBILEINY 19 Dec 12:50:32 12:50:45 10° 255° (WSW) 12:50:57 435.215
Gurwin Techsat 1B 19 Dec 13:08:35 13:13:55 85° 283° (WNW) 13:19:20 435.225
PCSat 19 Dec 13:09:17 13:14:40 72° 243° (WSW) 13:20:07 145.827
Oscar 19 19 Dec 13:11:49 13:15:07 17° 273° (W) 13:18:26 437.125/150
ITAMSAT 1 19 Dec 13:22:31 13:27:16 36° 278° (W) 13:32:07 435.822/435.867
ITUPSAT 1 19 Dec 13:24:08 13:28:32 34° 251° (WSW) 13:32:53 437.325
AIST 2 19 Dec 13:24:22 13:28:22 53° 239° (WSW) 13:32:23 435.215
SWISSCUBE 19 Dec 13:24:23 13:28:38 31° 250° (WSW) 13:32:51 437.505
BEESAT 3 19 Dec 13:26:53 13:29:55 21° 232° (SW) 13:32:58 437.485
STARS 19 Dec 13:38:13 13:42:31 45° 81° (E) 13:46:44 437.465
KKS-1 19 Dec 13:38:40 13:43:12 72° 78° (ENE) 13:47:39 437.445
SRMSAT 19 Dec 13:45:46 13:49:32 17° 6° (N) 13:53:20 437.500
BEESAT 19 Dec 13:50:27 13:53:47 19° 247° (WSW) 13:57:06 436.000
AUBIESAT-1 19 Dec 13:52:40 13:56:22 39° 250° (WSW) 14:00:20 437.475
JAS-2 19 Dec 13:56:06 13:57:13 11° 122° (ESE) 13:58:22 435.910
AO-7 19 Dec 13:56:46 14:04:49 55° 113° (ESE) 14:12:53 29.400- 29.500
ISS 19 Dec 13:58:16 14:00:40 18° 210° (SSW) 14:03:04 145.825
HORYU 2 19 Dec 14:03:49 14:08:14 54° 280° (W) 14:12:41 437.375
M-CUBED/EXP-1 PRIME 19 Dec 14:18:07 14:20:53 19° 246° (WSW) 14:23:48 437.505
JUGNU 19 Dec 14:33:41 14:37:07 16° 352° (N) 14:40:34 437.505
RS-15 19 Dec 14:42:35 14:49:43 17° 200° (SSW) 14:56:49 29.354- 29.394
GONETS M04 19 Dec 14:45:53 14:52:59 26° 109° (ESE) 15:00:02
PCSat 19 Dec 14:58:36 14:59:02 10° 224° (SW) 14:59:28 145.827
STARS 19 Dec 15:16:07 15:18:34 15° 246° (WSW) 15:21:00 437.465
AIST 1 19 Dec 15:24:23 15:28:36 60° 86° (E) 15:32:55
SRMSAT 19 Dec 15:34:11 15:38:01 18° 355° (N) 15:41:51 437.500
JAS-2 19 Dec 15:35:58 15:41:15 86° 283° (WNW) 15:47:06 435.910
AO-7 19 Dec 15:50:53 15:57:49 29° 277° (W) 16:04:49 29.400- 29.500
Cubesat XI-IV 19 Dec 16:07:12 16:12:10 40° 109° (ESE) 16:17:12 437.490
MOZHAYETS 4 19 Dec 16:14:52 16:19:32 76° 256° (WSW) 16:24:09
CUTE-I 19 Dec 16:40:22 16:45:44 83° 105° (ESE) 16:51:11 437.470
GONETS M04 19 Dec 16:41:38 16:50:15 60° 271° (W) 16:58:52
MaSat-1 19 Dec 16:56:25 16:58:27 15° 123° (ESE) 17:00:23 437.345
RS-15 19 Dec 17:02:55 17:09:42 16° 162° (SSE) 17:16:20 29.354- 29.394
STRAND 1 19 Dec 17:15:00 17:19:22 27° 84° (E) 17:23:41 437.568
SRMSAT 19 Dec 17:24:41 17:26:27 11° 345° (NNW) 17:28:14 437.500
PRISM 19 Dec 17:26:55 17:31:12 84° 257° (WSW) 17:35:27 437.425
CUBESAT XI-V 19 Dec 17:34:18 17:38:59 52° 80° (E) 17:43:36 437.345
Cubesat XI-IV 19 Dec 17:48:15 17:52:20 22° 275° (W) 17:56:29 437.490
DOVE 4 19 Dec 18:15:08 18:16:29 11° 117° (ESE) 18:17:49 437.250
MaSat-1 19 Dec 18:29:26 18:31:48 19° 285° (WNW) 18:34:02 437.345
HO-68 19 Dec 18:40:45 18:47:33 49° 112° (ESE) 18:54:26 435.675
BRITE-PL 19 Dec 18:44:54 18:50:10 43° 108° (ESE) 18:55:35 437.365/2234.400
CINEMA 3 19 Dec 18:48:00 18:50:25 14° 115° (ESE) 18:52:49 145.822/145.860
AAUSAT CUBESAT 2 19 Dec 18:49:18 18:52:27 21° 110° (ESE) 18:55:37 437.432
ISS 19 Dec 18:52:06 18:54:28 17° 150° (SSE) 18:56:50 145.825
STRAND 1 19 Dec 18:53:56 18:58:29 31° 249° (WSW) 19:03:00 437.568
CANX-2 19 Dec 18:57:37 19:01:44 46° 106° (ESE) 19:05:53 2200.000
CUBESAT XI-V 19 Dec 19:13:21 19:15:55 15° 246° (WSW) 19:18:28 437.345
RS-15 19 Dec 19:15:13 19:26:34 46° 131° (SE) 19:37:18 29.354- 29.394
GOMX 1 19 Dec 19:17:19 19:22:44 63° 105° (ESE) 19:28:14 467.674
UWE-3 19 Dec 19:19:34 19:21:56 14° 114° (ESE) 19:24:17 435.000/436.395/437.385
FUNcube-1 19 Dec 19:22:28 19:24:07 12° 115° (ESE) 19:25:46 145.935
COMPASS 1 19 Dec 19:22:37 19:26:46 60° 104° (ESE) 19:30:58 437.405
SEEDS 19 Dec 19:26:30 19:30:46 82° 103° (ESE) 19:35:04 437.485
CUTE 1.7 + AOD 2 19 Dec 19:28:24 19:32:42 80° 282° (WNW) 19:37:02 437.475
DX 1 19 Dec 19:36:50 19:40:39 30° 110° (ESE) 19:44:31 434.975-435.025
SO-50 19 Dec 19:37:38 19:42:10 42° 66° (ENE) 19:46:37 436.795
DELFI C3 19 Dec 19:46:18 19:50:05 37° 107° (ESE) 19:53:55 145.870
CUSAT 1 19 Dec 19:47:47 19:50:48 64° 100° (E) 19:53:25 437.405
DOVE 4 19 Dec 19:48:04 19:53:25 87° 282° (WNW) 19:58:50 437.250
Oscar 11 19 Dec 20:00:47 20:05:07 73° 104° (ESE) 20:09:30 145.826/435.025
HUMSAT D 19 Dec 20:02:55 20:05:58 19° 111° (ESE) 20:09:00 437.325/437.525
UKube-1 19 Dec 20:08:31 20:12:51 68° 105° (ESE) 20:17:16 .
CUBEBUG 2 19 Dec 20:12:46 20:17:31 63° 105° (ESE) 20:22:14 437.445
CINEMA 3 19 Dec 20:22:00 20:27:01 64° 281° (W) 20:32:03 145.822/145.860
AAUSAT CUBESAT 2 19 Dec 20:24:20 20:27:55 27° 276° (W) 20:31:32 437.432
BRITE-PL 19 Dec 20:24:21 20:28:44 23° 273° (W) 20:33:15 437.365/2234.400
VELOX 1 19 Dec 20:26:38 20:30:41 34° 109° (ESE) 20:34:47 145.980
ESTCUBE 1 19 Dec 20:27:20 20:29:29 13° 115° (ESE) 20:31:39 437.505/2401.250
ISS 19 Dec 20:27:58 20:31:17 52° 314° (NW) 20:34:33 145.825
ZACube-1 19 Dec 20:28:14 20:32:49 66° 104° (ESE) 20:37:23 437.345
HO-68 19 Dec 20:29:32 20:35:25 27° 276° (W) 20:41:22 435.675
DANDE 19 Dec 20:34:44 20:37:20 24° 271° (W) 20:39:38 436.750
CANX-2 19 Dec 20:36:11 20:37:53 12° 272° (W) 20:39:36 2200.000
BEESAT 2 19 Dec 20:50:09 20:52:54 18° 129° (SE) 20:55:39 435.950
UNISAT 6 19 Dec 20:51:10 20:53:57 17° 86° (E) 20:56:41 437.425
UWE-3 19 Dec 20:53:22 20:57:58 54° 280° (W) 21:02:34 435.000/436.395/437.385
FUNcube-1 19 Dec 20:55:21 20:59:54 61° 281° (W) 21:04:28 145.935
GOMX 1 19 Dec 20:58:12 21:01:11 15° 271° (W) 21:04:12 467.674
DUCHIFAT 1 19 Dec 21:04:31 21:06:58 15° 87° (E) 21:09:24 145.980
AISAT 19 Dec 21:08:40 21:13:11 76° 282° (WNW) 21:17:46 437.250
BUGSAT 1 19 Dec 21:08:57 21:11:04 13° 88° (E) 21:13:09 437.445
DX 1 19 Dec 21:13:34 21:16:52 21° 275° (W) 21:20:12 434.975-435.025
QB50P2 19 Dec 21:16:31 21:19:51 21° 85° (E) 21:23:08 145.880/145.840
CUBEBUG 1 19 Dec 21:18:44 21:22:58 47° 107° (ESE) 21:27:16 437.445
SO-50 19 Dec 21:19:17 21:22:51 21° 230° (SW) 21:26:22 436.795
ANTELSAT 19 Dec 21:21:55 21:26:00 38° 82° (E) 21:30:00 437.575/2403.000
50 SAT 19 Dec 21:23:09 21:27:16 60° 281° (W) 21:31:26 437.505
DELFI C3 19 Dec 21:23:24 21:25:29 14° 273° (W) 21:27:35 145.870
POLYITAN 1 19 Dec 21:24:43 21:28:23 27° 84° (E) 21:32:00 437.675
NANOSAT C BR1 19 Dec 21:27:47 21:31:33 29° 83° (E) 21:35:15 145.865
RS-15 19 Dec 21:27:56 21:39:03 51° 289° (WNW) 21:49:39 29.354- 29.394
HUMSAT D 19 Dec 21:37:33 21:41:29 33° 277° (W) 21:45:27 437.325/437.525
QB50P1 19 Dec 21:41:43 21:45:51 42° 81° (E) 21:49:54 145.935-145.965
BEESAT 3 19 Dec 21:48:21 21:52:20 88° 118° (ESE) 21:56:19 437.485
YUBILEINY 19 Dec 21:48:39 21:55:38 28° 97° (E) 22:02:39 435.215
AIST 2 19 Dec 21:49:24 21:53:09 34° 124° (SE) 21:56:53 435.215
CUBEBUG 2 19 Dec 21:53:06 21:54:31 11° 271° (W) 21:55:56 437.445
TIGRISAT 19 Dec 21:57:56 22:02:17 77° 256° (WSW) 22:06:33 435.000
PCSat 19 Dec 22:00:37 22:05:50 45° 121° (ESE) 22:11:00 145.827
ESTCUBE 1 19 Dec 22:01:28 22:05:51 51° 280° (W) 22:10:19 437.505/2401.250
VELOX 1 19 Dec 22:04:10 22:07:18 19° 274° (W) 22:10:29 145.980
POPSAT HIP 1 19 Dec 22:10:07 22:14:29 85° 258° (WSW) 22:18:45 437.405
UNISAT 6 19 Dec 22:26:54 22:30:49 34° 252° (WSW) 22:34:42 437.425
BEESAT 2 19 Dec 22:27:35 22:31:13 34° 294° (WNW) 22:34:51 435.950
TISAT 1 19 Dec 22:30:41 22:34:58 75° 104° (ESE) 22:39:20 437.305
SPROUT 19 Dec 22:30:43 22:35:02 68° 104° (ESE) 22:39:26 437.525
O/OREOS (USA 219) 19 Dec 22:37:20 22:39:57 15° 81° (E) 22:42:35 437.305
DUCHIFAT 1 19 Dec 22:38:56 22:42:58 38° 253° (WSW) 22:46:55 145.980
BUGSAT 1 19 Dec 22:42:38 22:46:44 42° 253° (WSW) 22:50:45 437.445
SWISSCUBE 19 Dec 22:51:05 22:54:30 20° 113° (ESE) 22:57:56 437.505
ITUPSAT 1 19 Dec 22:51:24 22:54:35 18° 114° (ESE) 22:57:48 437.325
QB50P2 19 Dec 22:52:03 22:55:42 27° 250° (WSW) 22:59:18 145.880/145.840
CUBEBUG 1 19 Dec 22:57:31 22:59:33 13° 272° (W) 23:01:37 437.445
ANTELSAT 19 Dec 22:59:54 23:02:26 15° 247° (WSW) 23:04:56 437.575/2403.000
